STARLINK-1627, 46168

Orbit data source: Space-Track

STARLINK-1627, 46168 is a payload satellite owned by SpaceX/Seattle (US) in LEO that was launched on Tue, 18 Aug 2020 UTC via an FALCON 9 launch vehicle from the Air Force Eastern Test Range (AFETR). Payload-class satellites include a variety of spacecraft equipped with specific instruments for various scientific and technological missions. These include communications satellites like Starlink; space stations such as the ISS; scientific satellites like the Hubble; Earth observation satellites from companies like Planet Labs, Umbra, and HawkEye 360; GPS; miniature CubeSats for education and research; and military/defense satellites.

Loading next visibility...
Identifier
46168, 2020-057BD
Orbit
LEO
Country
Flag of USUS
Related business
Manufacturer
SpaceX/Seattle
Mission
Partially operational Commercial Communications
Bus & Motor
STARLINK, Unknown motor
Mass
260 kg wet, ~248 kg dry
Launch date (UTC)
2020-08-18 (6 years ago)
Launch vehicle
FALCON 9
Launch site
Air Force Eastern Test Range (AFETR)
Object type
Payload
Rocket body
Debris
Shape & HBR
Box + 1 Pan, 10.1 m
Radar Cross Section
13.562 m², Large (>1 m²)

Expand to show TLE details & history
Last TLE update: 11 hours ago

TLE from 11 hours ago
0 STARLINK-1627
1 46168U 20057BD  26072.00002315  .00087267  00000-0  63233-3 0  9997
2 46168  53.0417 208.3533 0003756  36.1735 305.2783 15.72718245  5912
Epoch: 2026-03-13T00:00Z
TLE epoch observation values (Epoch: 2026-03-13T00:00:02.000Z)
Latitude
-14.91702°
Longitude
26.20621°
Altitude
353.683 km
Speed
7.698 km/s
True Right ascension
13h 07m 25s
True Declination
-14° 49' 36"
Sunlit
Object was in full shadow at epoch
Visualization orbit readout
Latitude
Unknown
Longitude
Unknown
Altitude
Unknown
Speed
Unknown
Apparent Right ascension
Unknown
Apparent Declination
Unknown
Sunlit
N/A
Visualization observer readout
Local Sidereal Time
15:45:18
Azimuth
Unknown
Elevation
Unknown
Doppler factor
Unknown
Orbital elements
Apogee altitude
353.94 km
Perigee altitude
348.885 km
Semi-major axis
6,729.55 km
Eccentricity
0.00038
Inclination
53.0417°
RAAN
208.3533°
Arg. of periapsis
36.1735°
True anomaly
305.24315°
Mean anomaly
305.2783°
Eccentric anomaly
305.26073°
Mean motion
3.93155 °/min
Orbital period
91.57 mins
BSTAR
0.00063233
Loading maneuver chart data...
Computing Atmospheric mass density...

Documentation

Showing up to 5 results
|